Time,TemperatureF,DewpointF,PressureIn,WindDirection,WindDirectionDegrees,WindSpeedMPH,WindSpeedGustMPH,Humidity,HourlyPrecipIn,Conditions,Clouds,dailyrainin,SoftwareType,DateUTC
2013-07-15 00:01:00,71.4,70.8,30.14,NNW,337,0.0,-999.0,98,-99.99,,,0.00,Acu-Link.com,2013-07-15 04:01:00,
2013-07-15 00:16:00,71.1,70.5,30.14,NE,45,0.0,-999.0,98,-99.99,,,0.00,Acu-Link.com,2013-07-15 04:16:00,
2013-07-15 00:31:00,70.9,70.3,30.14,ENE,67,0.0,-999.0,98,-99.99,,,0.00,Acu-Link.com,2013-07-15 04:31:00,
2013-07-15 00:46:00,70.5,69.9,30.14,NNE,22,0.0,-999.0,98,-99.99,,,0.00,Acu-Link.com,2013-07-15 04:46:00,
2013-07-15 01:01:00,70.3,69.7,30.14,NNW,337,0.0,-999.0,98,-99.99,,,0.00,Acu-Link.com,2013-07-15 05:01:00,
2013-07-15 01:16:00,70.2,69.6,30.14,WNW,292,0.0,-999.0,98,-99.99,,,0.00,Acu-Link.com,2013-07-15 05:16:00,
2013-07-15 01:31:00,70.0,69.4,30.14,SSE,157,0.0,-999.0,98,-99.99,,,0.00,Acu-Link.com,2013-07-15 05:31:00,
2013-07-15 01:46:00,69.6,69.0,30.14,East,90,0.0,-999.0,98,-99.99,,,0.00,Acu-Link.com,2013-07-15 05:46:00,
2013-07-15 02:02:00,69.6,69.0,30.14,WNW,292,0.0,-999.0,98,-99.99,,,0.00,Acu-Link.com,2013-07-15 06:02:00,
2013-07-15 02:17:00,69.3,68.7,30.14,NE,45,0.0,-999.0,98,-99.99,,,0.00,Acu-Link.com,2013-07-15 06:17:00,
2013-07-15 02:34:00,69.3,68.7,30.14,ESE,112,0.0,-999.0,98,-99.99,,,0.00,Acu-Link.com,2013-07-15 06:34:00,
2013-07-15 02:49:00,69.1,68.5,30.14,NW,315,0.0,-999.0,98,-99.99,,,0.00,Acu-Link.com,2013-07-15 06:49:00,
2013-07-15 03:04:00,68.7,68.1,30.14,NE,45,0.0,-999.0,98,-99.99,,,0.00,Acu-Link.com,2013-07-15 07:04:00,
2013-07-15 03:19:00,68.5,67.9,30.14,NNE,22,0.0,-999.0,98,-99.99,,,0.00,Acu-Link.com,2013-07-15 07:19:00,
2013-07-15 03:34:00,68.4,67.8,30.15,NE,45,0.0,-999.0,98,-99.99,,,0.00,Acu-Link.com,2013-07-15 07:34:00,
2013-07-15 03:49:00,68.5,67.9,30.14,South,180,0.0,-999.0,98,-99.99,,,0.00,Acu-Link.com,2013-07-15 07:49:00,
2013-07-15 04:07:00,68.4,67.8,30.14,NW,315,0.0,-999.0,98,-99.99,,,0.00,Acu-Link.com,2013-07-15 08:07:00,
2013-07-15 04:22:00,68.5,67.9,30.14,NNE,22,0.0,-999.0,98,-99.99,,,0.00,Acu-Link.com,2013-07-15 08:22:00,
2013-07-15 04:37:00,68.7,68.1,30.14,NNE,22,0.0,-999.0,98,-99.99,,,0.00,Acu-Link.com,2013-07-15 08:37:00,
2013-07-15 04:52:00,68.5,67.9,30.15,East,90,0.0,-999.0,98,-99.99,,,0.00,Acu-Link.com,2013-07-15 08:52:00,
2013-07-15 05:09:00,68.7,68.1,30.15,NW,315,0.0,-999.0,98,-99.99,,,0.00,Acu-Link.com,2013-07-15 09:09:00,
2013-07-15 05:24:00,68.7,68.1,30.15,West,270,0.0,-999.0,98,-99.99,,,0.00,Acu-Link.com,2013-07-15 09:24:00,
2013-07-15 05:39:00,68.5,67.9,30.15,North,0,0.0,-999.0,98,-99.99,,,0.00,Acu-Link.com,2013-07-15 09:39:00,
2013-07-15 05:54:00,69.1,68.5,30.15,NNE,22,1.7,-999.0,98,-99.99,,,0.00,Acu-Link.com,2013-07-15 09:54:00,
2013-07-15 06:09:00,69.1,68.5,30.15,West,270,0.0,-999.0,98,-99.99,,,0.00,Acu-Link.com,2013-07-15 10:09:00,
2013-07-15 06:25:00,69.3,68.7,30.16,West,270,0.0,-999.0,98,-99.99,,,0.00,Acu-Link.com,2013-07-15 10:25:00,
2013-07-15 06:40:00,69.6,69.0,30.16,West,270,0.0,-999.0,98,-99.99,,,0.00,Acu-Link.com,2013-07-15 10:40:00,
2013-07-15 06:55:00,69.8,69.2,30.16,SE,135,1.7,-999.0,98,-99.99,,,0.00,Acu-Link.com,2013-07-15 10:55:00,
2013-07-15 07:10:00,70.0,69.4,30.16,NW,315,2.7,-999.0,98,-99.99,,,0.00,Acu-Link.com,2013-07-15 11:10:00,
2013-07-15 07:25:00,70.2,69.6,30.18,NE,45,0.0,-999.0,98,-99.99,,,0.00,Acu-Link.com,2013-07-15 11:25:00,
2013-07-15 07:40:00,71.2,70.6,30.18,SW,225,0.0,-999.0,98,-99.99,,,0.00,Acu-Link.com,2013-07-15 11:40:00,
2013-07-15 07:57:00,73.4,72.8,30.19,WSW,247,2.2,-999.0,98,-99.99,,,0.00,Acu-Link.com,2013-07-15 11:57:00,
2013-07-15 08:12:00,77.2,75.7,30.18,SSE,157,3.2,-999.0,95,-99.99,,,0.00,Acu-Link.com,2013-07-15 12:12:00,
2013-07-15 08:28:00,80.1,75.9,30.19,SE,135,2.2,-999.0,87,-99.99,,,0.00,Acu-Link.com,2013-07-15 12:28:00,
2013-07-15 08:45:00,82.0,76.3,30.19,SSE,157,1.7,-999.0,83,-99.99,,,0.00,Acu-Link.com,2013-07-15 12:45:00,
2013-07-15 09:00:00,81.1,76.9,30.18,SW,225,1.7,-999.0,87,-99.99,,,0.00,Acu-Link.com,2013-07-15 13:00:00,
2013-07-15 09:15:00,79.0,76.1,30.19,WSW,247,1.7,-999.0,91,-99.99,,,0.00,Acu-Link.com,2013-07-15 13:15:00,
2013-07-15 09:31:00,79.7,75.5,30.18,West,270,2.2,-999.0,87,-99.99,,,0.00,Acu-Link.com,2013-07-15 13:31:00,
2013-07-15 09:46:00,82.9,77.6,30.18,WNW,292,2.2,-999.0,84,-99.99,,,0.00,Acu-Link.com,2013-07-15 13:46:00,
2013-07-15 10:01:00,83.1,76.6,30.17,NE,45,3.2,-999.0,81,-99.99,,,0.00,Acu-Link.com,2013-07-15 14:01:00,
2013-07-15 10:17:00,84.4,77.9,30.17,SSW,202,3.7,-999.0,81,-99.99,,,0.00,Acu-Link.com,2013-07-15 14:17:00,
2013-07-15 10:32:00,85.1,77.8,30.16,SSE,157,3.2,-999.0,79,-99.99,,,0.00,Acu-Link.com,2013-07-15 14:32:00,
2013-07-15 10:48:00,86.2,78.1,30.15,SSW,202,3.7,-999.0,77,-99.99,,,0.00,Acu-Link.com,2013-07-15 14:48:00,
2013-07-15 11:03:00,87.6,79.1,30.16,SE,135,2.7,-999.0,76,-99.99,,,0.00,Acu-Link.com,2013-07-15 15:03:00,
2013-07-15 11:18:00,88.0,79.5,30.15,North,0,1.7,-999.0,76,-99.99,,,0.00,Acu-Link.com,2013-07-15 15:18:00,
2013-07-15 12:03:00,91.4,80.6,30.13,SSW,202,5.8,-999.0,71,-99.99,,,0.00,Acu-Link.com,2013-07-15 16:03:00,
2013-07-15 12:18:00,91.4,79.8,30.14,SSE,157,4.2,-999.0,69,-99.99,,,0.00,Acu-Link.com,2013-07-15 16:18:00,
2013-07-15 12:33:00,90.1,79.0,30.13,SSE,157,5.8,-999.0,70,-99.99,,,0.00,Acu-Link.com,2013-07-15 16:33:00,
2013-07-15 12:48:00,91.9,79.8,30.14,SSW,202,2.7,-999.0,68,-99.99,,,0.00,Acu-Link.com,2013-07-15 16:48:00,
2013-07-15 13:04:00,92.7,79.6,30.14,SE,135,1.7,-999.0,66,-99.99,,,0.00,Acu-Link.com,2013-07-15 17:04:00,
2013-07-15 13:19:00,91.0,78.9,30.12,NW,315,2.2,-999.0,68,-99.99,,,0.00,Acu-Link.com,2013-07-15 17:19:00,
2013-07-15 13:34:00,92.1,79.5,30.11,SSE,157,6.8,-999.0,67,-99.99,,,0.00,Acu-Link.com,2013-07-15 17:34:00,
2013-07-15 13:49:00,90.9,79.3,30.12,SW,225,1.1,-999.0,69,-99.99,,,0.00,Acu-Link.com,2013-07-15 17:49:00,
2013-07-15 14:04:00,92.8,80.2,30.10,West,270,1.7,-999.0,67,-99.99,,,0.00,Acu-Link.com,2013-07-15 18:04:00,
2013-07-15 14:19:00,94.1,80.0,30.10,West,270,2.2,-999.0,64,-99.99,,,0.00,Acu-Link.com,2013-07-15 18:19:00,
2013-07-15 14:34:00,95.4,80.8,30.09,SSE,157,6.3,-999.0,63,-99.99,,,0.00,Acu-Link.com,2013-07-15 18:34:00,
2013-07-15 15:04:00,95.0,79.4,30.10,South,180,5.8,-999.0,61,-99.99,,,0.00,Acu-Link.com,2013-07-15 19:04:00,
2013-07-15 15:20:00,95.7,80.6,30.09,SE,135,4.2,-999.0,62,-99.99,,,0.00,Acu-Link.com,2013-07-15 19:20:00,
2013-07-15 15:37:00,94.1,79.0,30.09,SSE,157,2.2,-999.0,62,-99.99,,,0.00,Acu-Link.com,2013-07-15 19:37:00,
2013-07-15 15:53:00,95.4,80.3,30.08,ESE,112,1.1,-999.0,62,-99.99,,,0.00,Acu-Link.com,2013-07-15 19:53:00,
2013-07-15 16:08:00,95.4,79.8,30.08,South,180,1.1,-999.0,61,-99.99,,,0.00,Acu-Link.com,2013-07-15 20:08:00,
2013-07-15 16:23:00,97.3,80.5,30.08,NNE,22,4.2,-999.0,59,-99.99,,,0.00,Acu-Link.com,2013-07-15 20:23:00,
2013-07-15 16:38:00,94.5,78.4,30.08,SSW,202,1.7,-999.0,60,-99.99,,,0.00,Acu-Link.com,2013-07-15 20:38:00,
2013-07-15 16:53:00,94.5,78.4,30.08,North,0,1.7,-999.0,60,-99.99,,,0.00,Acu-Link.com,2013-07-15 20:53:00,
2013-07-15 17:08:00,94.1,78.6,30.07,West,270,0.0,-999.0,61,-99.99,,,0.00,Acu-Link.com,2013-07-15 21:08:00,
2013-07-15 17:26:00,95.0,79.4,30.07,ENE,67,1.7,-999.0,61,-99.99,,,0.00,Acu-Link.com,2013-07-15 21:26:00,
2013-07-15 17:41:00,94.8,78.2,30.07,SSE,157,0.0,-999.0,59,-99.99,,,0.00,Acu-Link.com,2013-07-15 21:41:00,
2013-07-15 17:56:00,93.7,79.6,30.07,East,90,0.0,-999.0,64,-99.99,,,0.00,Acu-Link.com,2013-07-15 21:56:00,
2013-07-15 18:11:00,91.4,80.2,30.07,WNW,292,1.1,-999.0,70,-99.99,,,0.00,Acu-Link.com,2013-07-15 22:11:00,
2013-07-15 18:42:00,87.1,79.0,30.07,WSW,247,2.7,-999.0,77,-99.99,,,0.00,Acu-Link.com,2013-07-15 22:42:00,
2013-07-15 18:59:00,85.6,78.3,30.07,West,270,0.0,-999.0,79,-99.99,,,0.00,Acu-Link.com,2013-07-15 22:59:00,
2013-07-15 19:14:00,84.4,77.2,30.07,SSE,157,2.2,-999.0,79,-99.99,,,0.00,Acu-Link.com,2013-07-15 23:14:00,
2013-07-15 19:29:00,83.8,77.0,30.07,West,270,2.7,-999.0,80,-99.99,,,0.00,Acu-Link.com,2013-07-15 23:29:00,
2013-07-15 19:44:00,83.1,77.4,30.07,NW,315,1.1,-999.0,83,-99.99,,,0.00,Acu-Link.com,2013-07-15 23:44:00,
2013-07-15 20:00:00,82.2,76.9,30.08,South,180,0.0,-999.0,84,-99.99,,,0.00,Acu-Link.com,2013-07-16 00:00:00,
2013-07-15 20:31:00,81.0,77.4,30.08,ENE,67,3.7,-999.0,89,-99.99,,,0.00,Acu-Link.com,2013-07-16 00:31:00,
2013-07-15 20:47:00,79.9,77.7,30.07,West,270,0.0,-999.0,93,-99.99,,,0.00,Acu-Link.com,2013-07-16 00:47:00,
2013-07-15 21:02:00,79.2,78.0,30.08,NNW,337,0.0,-999.0,96,-99.99,,,0.00,Acu-Link.com,2013-07-16 01:02:00,
2013-07-15 21:18:00,78.6,78.0,30.08,NW,315,0.0,-999.0,98,-99.99,,,0.00,Acu-Link.com,2013-07-16 01:18:00,
2013-07-15 21:33:00,77.9,77.3,30.09,South,180,0.0,-999.0,98,-99.99,,,0.00,Acu-Link.com,2013-07-16 01:33:00,
2013-07-15 21:48:00,77.7,77.1,30.09,WNW,292,0.0,-999.0,98,-99.99,,,0.00,Acu-Link.com,2013-07-16 01:48:00,
2013-07-15 22:03:00,77.4,76.8,30.09,NW,315,1.7,-999.0,98,-99.99,,,0.00,Acu-Link.com,2013-07-16 02:03:00,
2013-07-15 22:49:00,76.6,76.0,30.11,NNW,337,0.0,-999.0,98,-99.99,,,0.00,Acu-Link.com,2013-07-16 02:49:00,
2013-07-15 23:19:00,75.6,75.0,30.12,SSE,157,0.0,-999.0,98,-99.99,,,0.00,Acu-Link.com,2013-07-16 03:19:00,
2013-07-15 23:34:00,75.2,74.6,30.12,NNW,337,0.0,-999.0,98,-99.99,,,0.00,Acu-Link.com,2013-07-16 03:34:00,
2013-07-15 23:49:00,75.0,74.4,30.11,SW,225,0.0,-999.0,98,-99.99,,,0.00,Acu-Link.com,2013-07-16 03:49:00,